Location: Unnamed
(48.6007°N, 2.4808°E)
Time: 00:20:09
(UTC+02:00)

First-Move - Visible Passes

Search period start: 18 April 2024 00:00
Search period end: 28 April 2024 00:00
Orbit: 541 x 607 km, 97.7° (Epoch: 16 April)

Date Brightness Start Highest point End Pass type
(mag) Time Alt. Az. Time Alt. Az. Time Alt. Az.
18 Apr ? 04:09:37 10° NE 04:12:08 15° E 04:14:40 10° SE visible
18 Apr ? 05:43:32 10° N 05:47:44 62° WNW 05:51:56 10° SSW visible
19 Apr ? 04:12:32 10° NE 04:15:14 16° E 04:17:56 10° SE visible
19 Apr ? 05:46:36 10° N 05:50:46 57° WNW 05:54:57 10° SSW visible
20 Apr ? 04:15:23 10° NE 04:18:15 17° E 04:21:07 10° SE visible
20 Apr ? 05:49:36 10° N 05:53:45 54° WNW 05:57:54 10° SSW visible
21 Apr ? 04:18:12 10° NE 04:21:12 19° E 04:24:13 10° SE visible
21 Apr ? 05:52:32 10° N 05:56:40 50° WNW 06:00:47 10° SW visible
22 Apr ? 04:20:57 10° NE 04:24:06 20° E 04:27:14 10° SE visible
22 Apr ? 05:55:25 10° N 05:59:31 47° WNW 06:03:36 10° SW visible
23 Apr ? 04:23:39 10° NE 04:26:55 21° E 04:30:09 10° SE visible
23 Apr ? 05:58:14 10° N 06:02:17 44° WNW 06:06:20 10° SW visible
24 Apr ? 04:26:19 10° NE 04:29:40 22° E 04:33:01 10° SE visible
24 Apr ? 06:00:59 10° N 06:05:00 42° WNW 06:09:00 10° SW visible
25 Apr ? 04:28:54 10° NE 04:32:21 23° E 04:35:47 10° SSE visible
25 Apr ? 06:03:41 10° N 06:07:39 39° WNW 06:11:37 10° SW visible
26 Apr ? 04:31:27 10° NE 04:34:59 25° E 04:38:30 10° SSE visible
27 Apr ? 04:33:56 10° NE 04:37:32 26° E 04:41:07 10° SSE visible
